Regional Weather Roundup
Issued by NWS

Home | Current Version | Previous Version | Graphics & Text | Print | Product List | Glossary On
Versions: 1 2 3 4 5 6 7 8 9 10 11 12 13 14 15 16 17 18 19 20 21 22 23 24 25 26 27 28 29 30 31 32 33 34 35 36 37 38 39 40 41 42 43 44 45 46 47 48 49 50
446
ASUS43 KDMX 160106
RWRIA

WEATHER ROUNDUP FOR IOWA
NATIONAL WEATHER SERVICE DES MOINES IA
700 PM CST FRI DEC 15 2017

NOTE: "FAIR" INDICATES FEW OR NO CLOUDS BELOW 12,000 FEET WITH NO
SIGNIFICANT WEATHER AND/OR OBSTRUCTIONS TO VISIBILITY.

* - THESE STATIONS ARE NOT NWS STATIONS...THUS NOT UNDER NWS
QUALITY CONTROL.  THEY ALSO DO NOT REPORT WEATHER SUCH
AS PRECIPITATION OR FOG.

IAZ001>003-012>014-020>022-031>034-043>046-160200-
   NORTHWEST IOWA

CITY           SKY/WX    TMP DP  RH WIND       PRES   REMARKS
CARROLL *      CLOUDY    39  25  56 SW12      29.77S WCI  32
CHEROKEE *     CLOUDY    36  23  59 S7        29.74F WCI  30
DENISON *      CLOUDY    39  25  56 S9        29.78F WCI  33
LE MARS *      PTCLDY    36  25  64 S8        29.72F WCI  29
ORANGE CITY *  CLOUDY    36  27  69 S6        29.71F WCI  31
SHELDON *      CLOUDY    34  23  64 S8        29.69F WCI  27
SIOUX CITY     CLOUDY    38  26  62 SW7       29.75F WCI  33
SPENCER        CLOUDY    37  24  59 S7        29.72F WCI  32
STORM LAKE *   CLOUDY    36  23  60 SW9       29.75S WCI  29
$$

IAZ055>058-069>071-079>083-090>094-160200-
   SOUTHWEST IOWA

CITY           SKY/WX    TMP DP  RH WIND       PRES   REMARKS
ATLANTIC *     CLEAR     39  27  60 SW9       29.81F WCI  33
AUDUBON *      PTCLDY    39  27  60 S10       29.79F WCI  32
CLARINDA *     CLOUDY    36  25  64 S7          N/A  WCI  30
COUNCIL BLFS * CLEAR     41  27  56 S10       29.80F
CRESTON *      CLOUDY    36  23  60 SW13      29.85F WCI  27
HARLAN  *      CLOUDY    37  25  60 S10       29.82F WCI  30
LAMONI         CLOUDY    37  21  52 S12       29.88S WCI  29
RED OAK *      CLEAR     37  25  60 S8        29.84F WCI  31
SHENANDOAH *   CLEAR     39  25  56 S8        29.85F WCI  34
$$

IAZ047>049-059>061-072>074-084-160200-
   CENTRAL IOWA

CITY           SKY/WX    TMP DP  RH WIND       PRES   REMARKS
AMES           CLOUDY    40  25  55 S9        29.81F WCI  34
ANKENY *       CLOUDY    41  23  48 SW12      29.84S
BOONE *        CLOUDY    41  25  52 SW12      29.79F
CHARITON *     CLOUDY    36  21  55 S13       29.87S WCI  27
DES MOINES     CLOUDY    40  22  48 S10       29.83F WCI  33
GRINNELL*      CLOUDY    37  22  54 S10       29.85F WCI  29
KNOXVILLE *    CLOUDY    39  19  45 S12       29.85F WCI  32
MARSHALLTOWN   CLOUDY    39  23  52 SW10      29.81F WCI  32
NEWTON *       CLOUDY    37  21  52 SW13G20   29.84S WCI  29
PELLA *        CLOUDY    38  21  50 S7        29.87F WCI  33
PERRY *        MOCLDY    37  22  54 S10       29.81S WCI  30
$$

IAZ004>006-015-016-023>025-035-036-160200-
   NORTH CENTRAL IOWA

CITY           SKY/WX    TMP DP  RH WIND       PRES   REMARKS
ALGONA *       CLOUDY    39  25  56 SW10      29.75S WCI  32
CLARION *      CLOUDY    39  25  56 SW10      29.77S WCI  32
ESTHERVILLE    CLOUDY    36  25  64 S10       29.72S WCI  28
FORT DODGE *   CLOUDY    41  25  53 SW10      29.77F
MASON CITY     CLOUDY    37  23  56 SW8       29.77S WCI  31
FOREST CITY *  CLOUDY    37  27  65 SW3       29.75S
WEBSTER CITY * CLOUDY    39  25  56 S9        29.76F WCI  33
IOWA FALLS *   CLOUDY    39  25  57 SW10      29.79S WCI  33
$$

IAZ007>011-017>019-026>030-037>042-050>054-066-160200-
   NORTHEAST IOWA

CITY           SKY/WX    TMP DP  RH WIND       PRES   REMARKS
CEDAR RAPIDS   PTCLDY    34  22  61 S10       29.84F WCI  26
CHARLES CITY * CLOUDY    34  25  69 S8        29.78S WCI  27
DECORAH *      CLOUDY    30  28  93 S5        29.77F WCI  25
DUBUQUE        CLOUDY    30  24  78 S9        29.83F WCI  22
MONTICELLO *   CLOUDY    28  23  80 S6        29.84S WCI  22
OELWEIN *      CLOUDY    36  25  64 S7        29.81S WCI  30
WATERLOO       CLOUDY    37  22  54 SW9       29.80F WCI  30
$$

IAZ064-065-067-068-078-160200-
   EAST CENTRAL IOWA

CITY           SKY/WX    TMP DP  RH WIND       PRES   REMARKS
DAVENPORT      CLOUDY    35  21  56 S13       29.91R WCI  26
IOWA CITY      CLOUDY    36  22  56 SW7       29.89F WCI  30
MT. PLEASANT * CLOUDY    35  20  55 S12       29.92F WCI  26
MUSCATINE *    CLOUDY    36  21  55 S10       29.90F WCI  28
QUAD CITIES    CLEAR     34  22  61 S9        29.90R WCI  27
$$

IAZ062-063-075>077-085>089-095>099-160200-
   SOUTHEAST IOWA

CITY           SKY/WX    TMP DP  RH WIND       PRES   REMARKS
BURLINGTON     CLOUDY    33  21  61 SW10      29.93S WCI  25
FAIRFIELD *    CLOUDY    36  19  51 S10       29.89F WCI  28
FORT MADISON * CLOUDY    37  21  52 SW9       29.94F WCI  31
KEOKUK *       CLOUDY    37  21  52 SW12G21   29.94F WCI  30
OSKALOOSA *      N/A     34  22  61 SW10      29.87F WCI  26
OTTUMWA        CLOUDY    36  21  54 S12       29.87F WCI  28
WASHINGTON *   CLOUDY    34  23  64 SW12      29.90F WCI  25
$$

ABBREVIATIONS USED IN REMARKS
   TC - TEMPERATURES IN CELSIUS
  WCI - WIND CHILL INDEX
   HX - HEAT INDEX
  VSB - VISIBILITY
$$





USA.gov is the U.S. government's official web portal to all federal, state and local government web resources and services.